Location: Heisede
(52.2582°N, 9.8523°E)
Time: 05:02:21
(UTC+00:00)

Cosmos 1743 Rocket - Visible Passes

Search period start: 19 April 2026 00:00
Search period end: 29 April 2026 00:00
Orbit: 599 x 624 km, 82.6° (Epoch: 18 April)

Date Brightness Start Highest point End Pass type
(mag) Time Alt. Az. Time Alt. Az. Time Alt. Az.
19 Apr 5.4 03:22:02 10° N 03:26:10 37° ENE 03:30:14 10° SE visible
19 Apr 7.6 19:17:27 10° WNW 19:18:12 10° NW 19:18:57 10° NW visible
20 Apr 4.3 03:36:49 10° N 03:41:12 59° ENE 03:45:30 10° SSE visible
21 Apr 6.8 02:15:19 10° NNE 02:17:45 14° ENE 02:20:11 10° E visible
22 Apr 6.3 02:29:34 10° NNE 02:32:59 21° ENE 02:36:21 10° ESE visible
23 Apr 5.6 02:44:08 10° N 02:48:07 32° ENE 02:52:02 10° SE visible
24 Apr 4.6 02:58:52 10° N 03:03:10 50° ENE 03:07:24 10° SSE visible
25 Apr 6.7 01:37:42 10° NNE 01:39:39 13° ENE 01:41:33 10° E visible
25 Apr 3.7 03:13:43 10° N 03:18:09 81° E 03:22:31 10° SSE visible
26 Apr 6.4 01:51:45 10° NNE 01:54:53 19° ENE 01:57:58 10° ESE visible
27 Apr 5.7 02:06:15 10° N 02:10:03 28° ENE 02:13:48 10° SE visible
28 Apr 4.8 02:20:55 10° N 02:25:08 43° ENE 02:29:16 10° SE visible
